User: anonymous   Login
Location: Albany
(35.0000°S, 118.0000°E)
Time: 00:53:02
(UTC-04:00)
Language:

Cosmos 1933 - Orbit

View from above orbital plane
View from above orbital plane
View from above satellite
View from above satellite

Ground track
Ground track

The orbit data is extracted from the following two-line orbital elements,

1 18958U 88020A   16205.74634529  .00000784  00000-0  56221-4 0  9992
2 18958  82.5283  60.7046 0010868 326.3739  33.6796 15.02960249542193
Epoch (UTC): 23 July 2016 17:54:44
Eccentricity: 0.0010868
inclination: 82.5283°
perigee height: 550 km
apogee height: 565 km
right ascension of ascending node: 60.7046°
argument of perigee: 326.3739°
revolutions per day: 15.02960249
mean anomaly at epoch: 33.6796°
orbit number at epoch: 54219

The dashed part of the orbit path shows where the satellite is in the earth's shadow,  

DLR